Weather History for Homer, AK

Change the Weather History Date:

Monday, August 27, 2012

  Actual Average Record
Temperature  
Mean Temperature 57 °F -  
Max Temperature 64 °F 59 °F 72 °F (1951)
Min Temperature 51 °F 44 °F 35 °F (1948)
Degree Days  
Heating Degree Days 8    
Growing Degree Days 7 (Base 50)    
Moisture  
Dew Point 45 °F    
Average Humidity 70    
Maximum Humidity 94    
Minimum Humidity 37    
Precipitation  
Precipitation 0.00 in - - ()
Sea Level Pressure  
Sea Level Pressure 29.81 in    
Wind  
Wind Speed 12 mph (West)    
Max Wind Speed 17 mph    
Max Gust Speed 25 mph    
Visibility 10 miles    
Events      
Averages and records for this station are not official NWS values.
T = Trace of Precipitation, MM = Missing Value Source: NWS Daily Summary

Daily Weather History Graph

Daily Weather History Graph

Search for Another Location

Airport:

Trip Planner

Search our weather history database for the weather conditions in past years. The results will help you decide how hot, cold, wet, or windy it might be!

Date:

Astronomy

Aug. 27, 2012 Rise Set
Actual Time 6:51 AM AKDT 9:20 PM AKDT
Civil Twilight 6:06 AM AKDT 10:06 PM AKDT
Nautical Twilight 5:05 AM AKDT 11:06 PM AKDT
Astronomical Twilight 3:41 AM AKDT 12:27 AM AKDT
Moon 7:24 PM AKDT (8/27) 1:59 AM AKDT (8/27)
Length of Visible Light 16h 00m
Length of Day
14h 29m
Waxing Gibbous, 84% of the Moon is Illuminated
Aug 27
Waxing Gibbous
Aug 31
Full
Sep 8
Last Quarter
Sep 15
New
Sep 22
First Quarter

Hourly Weather History & Observations

Time (AKDT) Temp. Dew Point Humidity Pressure Visibility Wind Dir Wind Speed Gust Speed Precip Events Conditions
12:53 AM 55.9 °F 54.0 °F 93% 29.76 in 10.0 mi SW 11.5 mph - N/A   Overcast
1:06 AM 57.2 °F 55.4 °F 94% 29.76 in 10.0 mi West 15.0 mph 20.7 mph N/A   Overcast
1:53 AM 55.9 °F 54.0 °F 93% 29.76 in 10.0 mi WSW 15.0 mph - N/A   Overcast
2:53 AM 55.9 °F 53.1 °F 90% 29.76 in 10.0 mi West 8.1 mph - N/A   Overcast
3:53 AM 54.0 °F 52.0 °F 93% 29.76 in 10.0 mi WSW 9.2 mph - N/A   Overcast
4:53 AM 53.1 °F 51.1 °F 93% 29.76 in 10.0 mi WSW 11.5 mph - N/A   Overcast
5:53 AM 53.1 °F 48.9 °F 86% 29.76 in 10.0 mi SW 16.1 mph - N/A   Clear
6:43 AM 51.8 °F 48.2 °F 88% 29.76 in 10.0 mi SW 11.5 mph - N/A   Mostly Cloudy
6:53 AM 51.1 °F 48.0 °F 89% 29.77 in 10.0 mi WSW 11.5 mph - N/A   Overcast
7:53 AM 51.1 °F 48.9 °F 92% 29.77 in 10.0 mi SW 13.8 mph - N/A   Mostly Cloudy
8:06 AM 51.8 °F 48.2 °F 88% 29.76 in 10.0 mi SW 12.7 mph - N/A   Mostly Cloudy
8:20 AM 51.8 °F 48.2 °F 88% 29.78 in 10.0 mi SW 9.2 mph - N/A   Mostly Cloudy
8:53 AM 52.0 °F 48.9 °F 89% 29.78 in 10.0 mi WSW 9.2 mph - N/A   Overcast
9:46 AM 51.8 °F 48.2 °F 88% 29.79 in 10.0 mi WSW 9.2 mph - N/A   Overcast
9:53 AM 53.1 °F 48.9 °F 86% 29.79 in 10.0 mi WSW 8.1 mph - N/A   Mostly Cloudy
10:53 AM 55.0 °F 48.9 °F 80% 29.78 in 10.0 mi WSW 11.5 mph - N/A   Clear
11:53 AM 57.0 °F 48.0 °F 72% 29.80 in 10.0 mi WSW 13.8 mph - N/A   Clear
12:53 PM 57.0 °F 46.9 °F 69% 29.80 in 10.0 mi WSW 16.1 mph - N/A   Scattered Clouds
1:53 PM 63.0 °F 39.0 °F 41% 29.79 in 10.0 mi WNW 10.4 mph 25.3 mph N/A   Scattered Clouds
2:53 PM 63.0 °F 39.0 °F 41% 29.81 in 10.0 mi West 10.4 mph 21.9 mph N/A   Scattered Clouds
3:53 PM 63.0 °F 36.0 °F 37% 29.82 in 10.0 mi WNW 15.0 mph 24.2 mph N/A   Scattered Clouds
4:53 PM 63.0 °F 36.0 °F 37% 29.83 in 10.0 mi NW 17.3 mph 23.0 mph N/A   Scattered Clouds
5:53 PM 62.1 °F 37.0 °F 39% 29.85 in 10.0 mi NW 13.8 mph 23.0 mph N/A   Scattered Clouds
6:53 PM 62.1 °F 36.0 °F 38% 29.87 in 10.0 mi NW 12.7 mph 20.7 mph N/A   Scattered Clouds
7:53 PM 60.1 °F 35.1 °F 39% 29.89 in 10.0 mi NW 12.7 mph - N/A   Scattered Clouds
8:53 PM 57.9 °F 36.0 °F 44% 29.90 in 10.0 mi NNW 11.5 mph 21.9 mph N/A   Scattered Clouds
9:53 PM 55.9 °F 36.0 °F 47% 29.92 in 10.0 mi NNW 13.8 mph 20.7 mph N/A   Clear
10:53 PM 55.0 °F 36.0 °F 49% 29.94 in 10.0 mi NNW 16.1 mph 24.2 mph N/A   Clear
11:53 PM 54.0 °F 37.0 °F 53% 29.96 in 10.0 mi North 12.7 mph 21.9 mph N/A   Clear